Tracking 35237 objects as of 5-Sep-2026
HD Live streaming from Space Station
objects crossing your sky now

SALYUT 7 DEB


SALYUT 7 DEB is no longer on orbit


NORAD ID: 16258
Int'l Code: 1982-033GP
Launch date: April 19, 1982
Source: Commonwealth of Independent States (former USSR) (CIS)
Launch site: TYURATAM MISSILE AND SPACE COMPLEX (TTMTR)
Decay date: 1986-01-18

Note: This is SATELLITE DEBRIS
Your satellite tracking list
Your tracking list is empty




NASA's NSSDC Master Catalog

Two Line Element Set (TLE):
1 16258U 82033GP  86004.41882471  .00027553 +00000-0 +20497-3 0  9998
2 16258 051.6276 357.6543 0015969 180.4961 180.5113 15.72472086213932
Source of the keplerian elements: AFSPC